TimeCET,TemperatureF,Dew PointF,Humidity,Sea Level PressureIn,VisibilityMPH,Wind Direction,Wind SpeedMPH,Gust SpeedMPH,PrecipitationIn,Events,Conditions,WindDirDegrees,DateUTC
12:15 AM,57.2,51.8,82,30.09,6.2,NNE,3.5,-,N/A,,Scattered Clouds,20,2012-11-14 23:15:00
12:45 AM,57.2,51.8,82,30.09,6.2,North,2.3,-,N/A,,Mostly Cloudy,10,2012-11-14 23:45:00
1:15 AM,57.2,51.8,82,30.09,6.2,North,4.6,-,N/A,,Mostly Cloudy,10,2012-11-15 00:15:00
1:45 AM,57.2,51.8,82,30.09,6.2,NNE,4.6,-,N/A,,Mostly Cloudy,20,2012-11-15 00:45:00
2:15 AM,57.2,50.0,77,30.09,6.2,NNE,3.5,-,N/A,,Mostly Cloudy,20,2012-11-15 01:15:00
2:45 AM,55.4,50.0,82,30.09,6.2,NNE,3.5,-,N/A,,Mostly Cloudy,30,2012-11-15 01:45:00
3:15 AM,55.4,51.8,88,30.06,6.2,NNE,3.5,-,N/A,,Scattered Clouds,30,2012-11-15 02:15:00
3:45 AM,55.4,51.8,88,30.06,6.2,NNE,2.3,-,N/A,,Mostly Cloudy,20,2012-11-15 02:45:00
4:15 AM,55.4,50.0,82,30.06,6.2,NNE,4.6,-,N/A,,Mostly Cloudy,30,2012-11-15 03:15:00
4:45 AM,55.4,50.0,82,30.06,6.2,NNE,2.3,-,N/A,,Mostly Cloudy,30,2012-11-15 03:45:00
5:15 AM,55.4,50.0,82,30.06,6.2,NNE,3.5,-,N/A,,Mostly Cloudy,30,2012-11-15 04:15:00
5:45 AM,55.4,50.0,82,30.04,6.2,NNE,4.6,-,N/A,,Mostly Cloudy,30,2012-11-15 04:45:00
6:15 AM,55.4,51.8,88,30.04,6.2,North,5.8,-,N/A,,Mostly Cloudy,360,2012-11-15 05:15:00
6:45 AM,55.4,50.0,82,30.06,6.2,NNE,3.5,-,N/A,,Mostly Cloudy,30,2012-11-15 05:45:00
7:15 AM,57.2,51.8,82,30.04,6.2,NNE,2.3,-,N/A,,Mostly Cloudy,20,2012-11-15 06:15:00
7:45 AM,57.2,51.8,82,30.04,6.2,NNW,1.2,-,N/A,,Mostly Cloudy,330,2012-11-15 06:45:00
8:15 AM,57.2,51.8,82,30.06,6.2,NNE,3.5,-,N/A,,Mostly Cloudy,20,2012-11-15 07:15:00
8:45 AM,55.4,51.8,88,30.06,6.2,NE,4.6,-,N/A,Rain,Light Rain,40,2012-11-15 07:45:00
9:15 AM,55.4,51.8,88,30.06,6.2,NNE,3.5,-,N/A,Rain,Light Rain,30,2012-11-15 08:15:00
9:45 AM,55.4,51.8,88,30.06,6.2,North,4.6,-,N/A,Rain,Light Rain,10,2012-11-15 08:45:00
10:15 AM,57.2,53.6,88,30.06,6.2,NNE,3.5,-,N/A,,Mostly Cloudy,30,2012-11-15 09:15:00
10:45 AM,57.2,53.6,88,30.06,6.2,NNE,4.6,-,N/A,,Mostly Cloudy,30,2012-11-15 09:45:00
11:15 AM,59.0,53.6,82,30.06,6.2,North,4.6,-,N/A,,Mostly Cloudy,10,2012-11-15 10:15:00
11:45 AM,59.0,53.6,82,30.04,6.2,North,4.6,-,N/A,,Mostly Cloudy,10,2012-11-15 10:45:00
12:15 PM,59.0,53.6,82,30.04,6.2,NNE,4.6,-,N/A,,Mostly Cloudy,30,2012-11-15 11:15:00
12:45 PM,59.0,53.6,82,30.04,6.2,NNE,3.5,-,N/A,,Mostly Cloudy,30,2012-11-15 11:45:00
1:15 PM,59.0,53.6,82,30.01,6.2,NE,3.5,-,N/A,,Mostly Cloudy,40,2012-11-15 12:15:00
1:45 PM,60.8,53.6,77,30.01,6.2,NNE,3.5,-,N/A,,Mostly Cloudy,30,2012-11-15 12:45:00
2:15 PM,60.8,55.4,82,30.01,6.2,NE,3.5,-,N/A,,Scattered Clouds,40,2012-11-15 13:15:00
2:45 PM,62.6,55.4,77,30.01,6.2,NNE,1.2,-,N/A,,Scattered Clouds,20,2012-11-15 13:45:00
3:15 PM,62.6,55.4,77,30.01,6.2,NNE,1.2,-,N/A,,Scattered Clouds,30,2012-11-15 14:15:00
3:45 PM,62.6,55.4,77,30.01,6.2,Calm,Calm,-,N/A,,Scattered Clouds,0,2012-11-15 14:45:00
4:15 PM,62.6,53.6,72,30.01,6.2,Calm,Calm,-,N/A,,Scattered Clouds,0,2012-11-15 15:15:00
4:45 PM,60.8,53.6,77,30.01,6.2,NW,1.2,-,N/A,,Scattered Clouds,320,2012-11-15 15:45:00
5:15 PM,59.0,51.8,77,30.01,6.2,NNE,2.3,-,N/A,,Scattered Clouds,20,2012-11-15 16:15:00
5:45 PM,57.2,51.8,82,30.01,6.2,NE,2.3,-,N/A,,Scattered Clouds,40,2012-11-15 16:45:00
6:15 PM,57.2,53.6,88,30.01,6.2,East,4.6,-,N/A,,Scattered Clouds,100,2012-11-15 17:15:00
6:45 PM,55.4,51.8,88,30.01,6.2,East,3.5,-,N/A,,Scattered Clouds,100,2012-11-15 17:45:00
7:15 PM,55.4,51.8,88,30.01,6.2,East,1.2,-,N/A,,Scattered Clouds,90,2012-11-15 18:15:00
7:45 PM,55.4,51.8,88,30.01,6.2,Calm,Calm,-,N/A,,Partly Cloudy,0,2012-11-15 18:45:00
8:15 PM,53.6,50.0,88,30.01,6.2,Calm,Calm,-,N/A,,Scattered Clouds,0,2012-11-15 19:15:00
8:45 PM,53.6,50.0,88,30.01,6.2,ENE,1.2,-,N/A,,Scattered Clouds,70,2012-11-15 19:45:00
9:15 PM,53.6,50.0,88,30.04,6.2,Calm,Calm,-,N/A,,Scattered Clouds,0,2012-11-15 20:15:00
9:45 PM,53.6,50.0,88,30.04,6.2,North,2.3,-,N/A,,Scattered Clouds,350,2012-11-15 20:45:00
10:15 PM,53.6,50.0,88,30.04,6.2,North,3.5,-,N/A,,Scattered Clouds,350,2012-11-15 21:15:00
10:45 PM,53.6,50.0,88,30.04,6.2,NNE,1.2,-,N/A,,Mostly Cloudy,30,2012-11-15 21:45:00
11:15 PM,53.6,50.0,88,30.04,6.2,NNE,3.5,-,N/A,,Mostly Cloudy,20,2012-11-15 22:15:00
11:45 PM,53.6,48.2,82,30.04,6.2,NNE,4.6,-,N/A,,Mostly Cloudy,20,2012-11-15 22:45:00